Home > Weather > Alsdorf > Past weeks

Flag for Germany Past Weather in Alsdorf, North Rhine-Westphalia, Germany — Yesterday and Last 2 Weeks

Now
61 °F

Overcast.


Feels Like: 61 °F
Forecast: 56 / 68 °F
Wind: 10 mph from Southwest

Location: Maastricht Airport Zuid Limburg

Current Time: Jul 30, 2016 at 9:29:44 AM

Latest Report: Jul 30, 2016 at 8:55 AM


Visibility: N/A

Pressure: 29.92 "Hg

Humidity: 83%

Dew Point: 55 °F

Location of AlsdorfLocation

Past Weather in Alsdorf — Graph

°F

Alsdorf Temperature Yesterday

Maximum temperature yesterday: 73 °F (at 3:25 PM)
Minimum temperature yesterday: 59 °F (at 2:25 AM)
Average temperature yesterday: 66 °F

High & Low Weather Summary for the Past Weeks

 TemperatureHumidityPressure
High91 °F (Jul 20, 1:55 PM)100% (Jul 18, 3:55 AM)30.30 "Hg (Jul 18, 3:55 AM)
Low52 °F (Jul 15, 7:25 AM)34% (Jul 20, 4:25 PM)29.86 "Hg (Jul 20, 2:55 PM)
Average70 °F75%30.07 "Hg
* Reported Jul 15 7:25 AM — Jul 30 7:55 AM, Alsdorf, Weather by CustomWeather, © 2016

Note: Actual official high and low records may vary slightly from our data, if they occured in-between our weather recording intervals... More about our weather records

Advertising

Alsdorf Weather History for the Previous 24 Hours

Scroll right to see more
 ConditionsComfort  
Time TempWeatherWind HumidityBarometerVisibility
7:55 AM
Sat, Jul 30
61 °FOvercast.12 mph83%29.92 "HgN/A
7:25 AM59 °FClear.10 mph88%29.92 "HgN/A
6:55 AM59 °FClear.10 mph88%29.92 "HgN/A
6:25 AM59 °FClear.10 mph82%29.92 "HgN/A
5:55 AM59 °FCool.10 mph82%29.92 "HgN/A
5:25 AM59 °FClear.10 mph88%29.92 "HgN/A
4:55 AM59 °FClear.9 mph88%29.89 "HgN/A
4:25 AM61 °FClear.9 mph83%29.92 "HgN/A
3:55 AM61 °FPassing clouds.8 mph83%29.92 "HgN/A
3:25 AM63 °FClear.7 mph77%29.92 "HgN/A
2:55 AM63 °FPassing clouds.7 mph77%29.92 "HgN/A
2:25 AM63 °FPassing clouds.6 mph77%29.92 "HgN/A
1:55 AM63 °FClear.6 mph83%29.92 "HgN/A
1:25 AM64 °FPassing clouds.6 mph78%29.92 "HgN/A
12:55 AM64 °FPassing clouds.5 mph78%29.92 "HgN/A
12:25 AM64 °FPassing clouds.2 mph78%29.92 "HgN/A
11:55 PM
Fri, Jul 29
66 °FClear.2 mph73%29.92 "HgN/A
11:25 PM64 °FClear.3 mph78%29.92 "HgN/A
10:55 PM66 °FPartly cloudy.2 mph78%29.92 "HgN/A
10:25 PM64 °FClear.2 mph83%29.92 "HgN/A
9:55 PM66 °FHaze.2 mph78%29.92 "Hg3 mi
9:25 PM68 °FClear.2 mph73%29.89 "HgN/A
8:55 PM68 °FClear.2 mph73%29.89 "HgN/A
8:25 PM70 °FClear.6 mph69%29.89 "HgN/A
7:55 PM72 °FPartly sunny.6 mph65%29.89 "HgN/A
7:25 PM72 °FPassing clouds.7 mph65%29.89 "HgN/A
6:55 PM72 °FBroken clouds.8 mph65%29.89 "HgN/A
6:25 PM73 °FPassing clouds.12 mph65%29.89 "HgN/A
5:55 PM72 °FPassing clouds.9 mph61%29.89 "HgN/A
5:25 PM73 °FScattered clouds.13 mph61%29.89 "HgN/A
4:55 PM73 °FPassing clouds.13 mph61%29.89 "HgN/A
4:25 PM72 °FScattered clouds.9 mph69%29.89 "HgN/A
3:55 PM72 °FBroken clouds.10 mph69%29.89 "HgN/A
3:25 PM73 °FBroken clouds.15 mph65%29.89 "HgN/A
2:55 PM72 °FPassing clouds.15 mph69%29.89 "HgN/A
2:25 PM70 °FScattered clouds.13 mph73%29.89 "HgN/A
1:55 PM70 °FPartly sunny.13 mph78%29.89 "HgN/A
1:25 PM68 °FPartly sunny.9 mph83%29.92 "HgN/A
12:55 PM64 °FMore clouds than sun.7 mph94%29.92 "HgN/A
12:25 PM66 °FLight rain. Broken clouds.14 mph83%29.92 "HgN/A
11:55 AM68 °FMore clouds than sun.14 mph83%29.92 "HgN/A
11:25 AM66 °FBroken clouds.14 mph88%29.92 "HgN/A
10:55 AM66 °FCloudy.13 mph83%29.92 "HgN/A
10:25 AM64 °FMostly cloudy.12 mph94%29.92 "HgN/A
9:55 AM64 °FBroken clouds.9 mph94%29.92 "HgN/A
9:25 AM63 °FBroken clouds.10 mph94%29.92 "HgN/A
Weather by CustomWeather, © 2016

See weather overviewHow to use our weather pages